Location: Shenandoah County Park
(38.9356°N, 78.4524°W)
Time: 06:56:49
(UTC-04:00)

Vanguard 1 Rocket - Pass Details

Date: 13 February 2023
Orbit: 652 x 4223 km, 34.3° (Epoch: 26 March)

Event Time Altitude Azimuth Distance (km) Brightness Sun altitude
Rises 07:56:50 0° 196° (SSW) 3,021 10.2 8.1°
Reaches altitude 10° 08:00:04 10° 168° (SSE) 2,305 10.1 8.7°
Maximum altitude 08:02:43 14° 137° (SE) 2,269 11.0 9.2°
Drops below altitude 10° 08:05:55 10° 107° (ESE) 2,887 12.5 9.7°
Sets 08:11:00 0° 85° (E) 4,493 12.0 10.6°
